Погода в Сныткине

Россия / Брянская область     52°36′00″N   34°40′13″E
темп.,
°C
ветер,
м/с
пор.,
м/с
влажн.,
%
обл.,
%
осадки,
мм/ч
давл.,
гПа
погр.,
м
10 апреля, сб
сб1000:00+2юз22681 0.0 102710
03:00+1ююз22700 0.0 102712
06:00+1ю22720 0.0 102718
09:00+6ююз34560 0.0 1028318
12:00+9ююз44415 0.0 10271743
15:00+10юз45375 0.0 10261883
18:00+10юз34442 0.0 1025260
21:00+5ююз33570 0.0 102624
11 апреля, вс
вс1100:00+4юз33630 0.0 102725
03:00+3юз22650 0.0 102814
06:00+2ююз11680 0.0 102910
09:00+7ююз12540 0.0 1030214
12:00+11юв11430 0.0 1030953
15:00+13св23380 0.0 10291179
18:00+13всв35475 0.0 1029284
21:00+8всв345915 0.0 102947
12 апреля, пн
пн1200:00+6всв3568100 0.0 103085
03:00+5св387294 0.0 1029148
06:00+4св41174100 0.0 1028218
09:00+7всв5968100 0.0 1027393
12:00+11в4670100 0.0 1025662
15:00+14в3465100 0.0 1024705
18:00+13всв3774100 0.0 1023348
21:00+11всв4985100 0.0 1022170
13 апреля, вт
вт1300:00+10в368897 0.0 102199
03:00+11юв4878100 0.0 1021129
06:00+10вюв4983100 0.0 1020158
09:00+11юв41082100 0.0 1020325
12:00+15ююв6868100 0.0 10201046
15:00+12ююв4885100 0.1 1020543
18:00+11ююз3791100 0.1 1020354
21:00+10ю2388100 0.1 102062
14 апреля, ср
ср1400:00+10ю2286100 0.0 102039
03:00+10ююз2287100 0.0 101917
06:00+9юз2285100 0.0 101819
09:00+10ююз1180100 0.0 101958
12:00+11вюв118096 0.1 101975
15:00+12св1173100 0.1 101880
18:00+13вюв127192 0.0 1017176
21:00+10всв118524 0.0 101810